FENGYUN 1C DEB, 31509

Orbit data source: Space-Track

FENGYUN 1C DEB, 31509 is space debris in SSO originally from a launch on Mon, 10 May 1999 UTC launched from the Taiyaun Space Center, China (TSC). Fengyun 1C debris stems from the Chinese weather satellite Fengyun-1C, which was intentionally destroyed by a Chinese anti-satellite missile in 2007. This event dramatically increased the amount of space debris, with thousands of trackable fragments posing hazards to satellites and human spaceflight. The Fengyun 1C debris cloud has become a focal point in discussions about space sustainability and the need for international regulations to prevent the creation of new debris.

Loading next visibility...
Identifier
31509, 1999-025BWY
Orbit
SSO
Country
Flag of CNCN / PRC
Related business
Manufacturer
Unknown
Mission
Spacecraft
Bus & Motor
Unknown
Mass
Unknown
Launch date (UTC)
1999-05-10 (27 years ago)
Launch vehicle
Unknown
Launch site
Taiyaun Space Center, China (TSC)
Object type
Payload
Rocket body
Debris
Shape & HBR
Unknown shape, 0.1 m
Radar Cross Section
Medium (>0.1 m² and <1 m²)

Expand to show TLE details & history
Last TLE update: 6 days ago

TLE from 6 days ago
0 FENGYUN 1C DEB
1 31509U 99025BWY 26155.11255227  .00002961  00000-0  18650-2 0  9997
2 31509  99.0308 275.8347 0196801 103.8645 258.4496 13.95921753963806
Epoch: 2026-06-04T02:42Z
TLE epoch observation values (Epoch: 2026-06-04T02:42:04.516Z)
Latitude
-0.00001°
Longitude
-17.24561°
Altitude
942.235 km
Speed
7.365 km/s
True Right ascension
18h 23m 20s
True Declination
0° 00' 00"
Sunlit
Object was in full shadow at epoch
Visualization orbit readout
Latitude
Unknown
Longitude
Unknown
Altitude
Unknown
Speed
Unknown
Apparent Right ascension
Unknown
Apparent Declination
Unknown
Sunlit
N/A
Visualization observer readout
Local Sidereal Time
20:58:18
Azimuth
Unknown
Elevation
Unknown
Doppler factor
Unknown
Orbital elements
Apogee altitude
1,048.492 km
Perigee altitude
761.821 km
Semi-major axis
7,283.294 km
Eccentricity
0.01968
Inclination
99.0308°
RAAN
275.8347°
Arg. of periapsis
103.8645°
True anomaly
256.25147°
Mean anomaly
258.4496°
Eccentric anomaly
257.34939°
Mean motion
3.49182 °/min
Orbital period
103.1 mins
BSTAR
0.001865
Loading maneuver chart data...
Computing Atmospheric mass density...

Documentation

Showing up to 5 results
|